BAW781 ENGM-EGLL

Flight info

Callsign BAW781
Flight time 1h 58m
Altitude 36000
Route VIPPA DCT LINVI DCT UPGAS DCT TIPAN N866 BUKUT P7 BARMI
Aircraft A320/M-SDE3FGIJ1KRWXY/SB1

Departure

Time 2026-05-05 13:02
Airport Oslo-Gardermoen International Airport (ENGM)

Arrival

Time 2026-05-05 15:01
Airport London Heathrow Airport (EGLL)
Time Latitude Longitude Altitude Speed Heading
2026-05-05 12:36 60.19291 11.10670 683 ft 0 kts 339°
2026-05-05 12:50 60.19285 11.10675 683 ft 4 kts 340°
2026-05-05 12:51 60.19259 11.10689 680 ft 4 kts 357°
2026-05-05 12:51 60.19236 11.10681 683 ft 4 kts 53°
2026-05-05 12:51 60.19231 11.10664 680 ft 0 kts 107°
2026-05-05 12:55 60.19231 11.10669 683 ft 2 kts 107°
2026-05-05 12:55 60.19224 11.10715 683 ft 5 kts 107°
2026-05-05 12:55 60.19210 11.10815 683 ft 10 kts 105°
2026-05-05 12:56 60.19190 11.10959 680 ft 12 kts 105°
2026-05-05 12:56 60.19158 11.11109 683 ft 11 kts 140°
2026-05-05 12:56 60.19087 11.11091 685 ft 12 kts 197°
2026-05-05 12:56 60.18994 11.11037 685 ft 18 kts 195°
2026-05-05 12:57 60.18864 11.10958 684 ft 21 kts 199°
2026-05-05 12:57 60.18715 11.10874 684 ft 20 kts 195°
2026-05-05 12:57 60.18576 11.10794 681 ft 22 kts 196°
2026-05-05 12:57 60.18420 11.10706 682 ft 25 kts 196°
2026-05-05 12:58 60.18256 11.10612 681 ft 22 kts 195°
2026-05-05 12:58 60.18096 11.10518 679 ft 25 kts 196°
2026-05-05 12:58 60.17947 11.10432 680 ft 21 kts 195°
2026-05-05 12:58 60.17814 11.10356 680 ft 15 kts 192°
2026-05-05 12:59 60.17787 11.10343 680 ft 1 kts 194°
2026-05-05 12:59 60.17767 11.10330 680 ft 5 kts 198°
2026-05-05 12:59 60.17710 11.10296 680 ft 13 kts 194°
2026-05-05 13:00 60.17612 11.10610 679 ft 18 kts 105°
2026-05-05 13:00 60.17651 11.10825 680 ft 18 kts 30°
2026-05-05 13:01 60.17734 11.10871 680 ft 0 kts 15°
2026-05-05 13:01 60.17737 11.10873 680 ft 2 kts 15°
2026-05-05 13:01 60.17824 11.10922 676 ft 41 kts 15°
2026-05-05 13:02 60.18320 11.11209 684 ft 105 kts 16°
2026-05-05 13:02 60.19188 11.11718 687 ft 152 kts 17°
2026-05-05 13:02 60.20266 11.12384 1075 ft 165 kts 21°
2026-05-05 13:02 60.21018 11.14143 1746 ft 177 kts 71°
2026-05-05 13:03 60.21287 11.16579 2354 ft 184 kts 77°
2026-05-05 13:03 60.21534 11.19235 2734 ft 204 kts 77°
2026-05-05 13:03 60.21801 11.22158 3086 ft 228 kts 78°
2026-05-05 13:03 60.22113 11.25449 3559 ft 248 kts 77°
2026-05-05 13:04 60.22323 11.28934 4410 ft 255 kts 96°
2026-05-05 13:04 60.21648 11.32231 5198 ft 265 kts 131°
2026-05-05 13:04 60.20112 11.34363 5865 ft 274 kts 161°
2026-05-05 13:04 60.18266 11.35392 6746 ft 276 kts 173°
2026-05-05 13:05 60.16363 11.35275 7643 ft 275 kts 195°
2026-05-05 13:05 60.14539 11.34177 8577 ft 274 kts 205°
2026-05-05 13:05 60.12815 11.32527 9518 ft 275 kts 212°
2026-05-05 13:05 60.11125 11.30646 10219 ft 286 kts 212°
2026-05-05 13:06 60.09301 11.28666 10501 ft 310 kts 211°
2026-05-05 13:06 60.07342 11.26559 10930 ft 325 kts 211°
2026-05-05 13:06 60.05333 11.24405 11653 ft 330 kts 211°
2026-05-05 13:06 60.03295 11.22218 12414 ft 334 kts 212°
2026-05-05 13:07 60.01263 11.20031 13168 ft 337 kts 212°
2026-05-05 13:07 59.99191 11.17792 13876 ft 340 kts 213°
2026-05-05 13:07 59.97107 11.15537 14585 ft 341 kts 213°
2026-05-05 13:07 59.95021 11.13283 15350 ft 341 kts 214°
2026-05-05 13:08 59.92934 11.11031 16104 ft 340 kts 215°
2026-05-05 13:08 59.90853 11.08787 16821 ft 340 kts 216°
2026-05-05 13:08 59.88773 11.06549 17561 ft 339 kts 216°
2026-05-05 13:08 59.86694 11.04315 18290 ft 339 kts 217°
2026-05-05 13:09 59.84619 11.02088 18954 ft 339 kts 217°
2026-05-05 13:09 59.82544 10.99862 19622 ft 339 kts 218°
2026-05-05 13:09 59.80466 10.97631 20267 ft 339 kts 218°
2026-05-05 13:09 59.78388 10.95404 20874 ft 340 kts 219°
2026-05-05 13:10 59.76307 10.93168 21480 ft 341 kts 219°
2026-05-05 13:10 59.74213 10.90923 22052 ft 342 kts 219°
2026-05-05 13:10 59.72114 10.88684 22603 ft 343 kts 220°
2026-05-05 13:10 59.70004 10.86441 23150 ft 345 kts 220°
2026-05-05 13:11 59.67882 10.84188 23640 ft 347 kts 220°
2026-05-05 13:11 59.65749 10.81924 24048 ft 349 kts 220°
2026-05-05 13:11 59.63596 10.79640 24422 ft 353 kts 219°
2026-05-05 13:11 59.61452 10.77372 24821 ft 356 kts 219°
2026-05-05 13:12 59.59259 10.75055 25206 ft 359 kts 219°
2026-05-05 13:12 59.57051 10.72719 25592 ft 362 kts 219°
2026-05-05 13:12 59.54775 10.70468 25957 ft 372 kts 213°
2026-05-05 13:12 59.52245 10.68977 26322 ft 390 kts 202°
2026-05-05 13:13 59.49555 10.68021 26691 ft 394 kts 201°
2026-05-05 13:13 59.46844 10.67067 27065 ft 397 kts 201°
2026-05-05 13:13 59.44121 10.66104 27443 ft 399 kts 201°
2026-05-05 13:13 59.41381 10.65131 27830 ft 401 kts 201°
2026-05-05 13:14 59.38625 10.64150 28216 ft 404 kts 201°
2026-05-05 13:14 59.35852 10.63164 28587 ft 406 kts 200°
2026-05-05 13:14 59.33059 10.62169 28957 ft 408 kts 200°
2026-05-05 13:14 59.30254 10.61170 29394 ft 411 kts 200°
2026-05-05 13:15 59.27437 10.60173 29748 ft 413 kts 200°
2026-05-05 13:15 59.24602 10.59173 30104 ft 415 kts 200°
2026-05-05 13:15 59.21761 10.58175 30517 ft 414 kts 200°
2026-05-05 13:15 59.18927 10.57189 30941 ft 414 kts 199°
2026-05-05 13:16 59.16092 10.56197 31289 ft 413 kts 200°
2026-05-05 13:16 59.13264 10.55202 31697 ft 413 kts 199°
2026-05-05 13:16 59.10437 10.54200 32118 ft 412 kts 200°
2026-05-05 13:16 59.07721 10.52694 32528 ft 401 kts 210°
2026-05-05 13:17 59.05268 10.50285 32935 ft 390 kts 220°
2026-05-05 13:17 59.03142 10.47118 33337 ft 382 kts 229°
2026-05-05 13:17 59.01377 10.43328 33747 ft 376 kts 238°
2026-05-05 13:17 58.99912 10.39142 34109 ft 375 kts 240°
2026-05-05 13:18 58.98460 10.34933 34396 ft 376 kts 240°
2026-05-05 13:18 58.97013 10.30772 34673 ft 378 kts 240°
2026-05-05 13:18 58.95519 10.26488 34941 ft 379 kts 239°
2026-05-05 13:18 58.93911 10.22492 35196 ft 385 kts 231°
2026-05-05 13:19 58.91914 10.18954 35439 ft 391 kts 226°
2026-05-05 13:19 58.89845 10.15539 35693 ft 392 kts 226°
2026-05-05 13:19 58.87760 10.12097 35889 ft 395 kts 226°
2026-05-05 13:19 58.85665 10.08634 35942 ft 399 kts 226°
2026-05-05 13:20 58.81426 10.01656 35946 ft 402 kts 225°
2026-05-05 13:20 58.77166 9.94670 35952 ft 402 kts 225°
2026-05-05 13:21 58.72907 9.87698 35950 ft 402 kts 225°
2026-05-05 13:21 58.68643 9.80738 35952 ft 402 kts 225°
2026-05-05 13:22 58.64376 9.73808 35952 ft 402 kts 225°
2026-05-05 13:22 58.60825 9.68053 35950 ft 402 kts 225°
2026-05-05 13:23 58.56551 9.61136 35952 ft 402 kts 225°
2026-05-05 13:23 58.52274 9.54229 35951 ft 402 kts 225°
2026-05-05 13:24 58.47987 9.47337 35955 ft 403 kts 225°
2026-05-05 13:24 58.43687 9.40476 35958 ft 403 kts 225°
2026-05-05 13:25 58.39386 9.33618 35957 ft 403 kts 225°
2026-05-05 13:25 58.35084 9.26765 35958 ft 403 kts 225°
2026-05-05 13:26 58.30771 9.19915 35961 ft 403 kts 225°
2026-05-05 13:26 58.26452 9.13102 35964 ft 404 kts 225°
2026-05-05 13:27 58.22122 9.06299 35963 ft 404 kts 225°
2026-05-05 13:27 58.17811 8.99544 35961 ft 404 kts 225°
2026-05-05 13:28 58.13473 8.92754 35964 ft 404 kts 225°
2026-05-05 13:28 58.09132 8.85972 35964 ft 405 kts 225°
2026-05-05 13:29 58.04784 8.79209 35967 ft 405 kts 225°
2026-05-05 13:29 58.00435 8.72463 35967 ft 405 kts 225°
2026-05-05 13:30 57.96069 8.65738 35967 ft 405 kts 224°
2026-05-05 13:30 57.91698 8.59012 35979 ft 406 kts 224°
2026-05-05 13:31 57.87328 8.52303 35976 ft 406 kts 224°
2026-05-05 13:31 57.82947 8.45611 35977 ft 406 kts 224°
2026-05-05 13:32 57.78563 8.38934 35974 ft 406 kts 224°
2026-05-05 13:32 57.74174 8.32258 35977 ft 406 kts 224°
2026-05-05 13:33 57.69775 8.25590 35977 ft 407 kts 224°
2026-05-05 13:33 57.65371 8.18947 35980 ft 407 kts 224°
2026-05-05 13:34 57.60992 8.12355 35985 ft 407 kts 224°
2026-05-05 13:34 57.56578 8.05726 35987 ft 407 kts 224°
2026-05-05 13:35 57.52157 7.99121 35996 ft 408 kts 224°
2026-05-05 13:35 57.47725 7.92535 35992 ft 408 kts 224°
2026-05-05 13:36 57.43290 7.85962 35997 ft 408 kts 223°
2026-05-05 13:36 57.38856 7.79387 35992 ft 408 kts 223°
2026-05-05 13:37 57.34415 7.72826 35990 ft 408 kts 223°
2026-05-05 13:37 57.29963 7.66270 35993 ft 409 kts 223°
2026-05-05 13:38 57.25512 7.59734 35997 ft 409 kts 223°
2026-05-05 13:38 57.21049 7.53221 35993 ft 409 kts 223°
2026-05-05 13:39 57.16575 7.46723 35997 ft 409 kts 223°
2026-05-05 13:39 57.12100 7.40217 36009 ft 410 kts 223°
2026-05-05 13:40 57.07620 7.33710 36012 ft 410 kts 223°
2026-05-05 13:40 57.03124 7.27233 36015 ft 411 kts 223°
2026-05-05 13:41 56.98615 7.20796 36018 ft 411 kts 221°
2026-05-05 13:41 56.94008 7.14559 36017 ft 412 kts 220°
2026-05-05 13:42 56.89352 7.08427 36019 ft 413 kts 220°
2026-05-05 13:42 56.84697 7.02289 36017 ft 412 kts 220°
2026-05-05 13:43 56.80084 6.96162 36017 ft 412 kts 220°
2026-05-05 13:43 56.75447 6.90013 36019 ft 412 kts 220°
2026-05-05 13:44 56.70800 6.83881 36015 ft 413 kts 220°
2026-05-05 13:44 56.66147 6.77760 36014 ft 413 kts 220°
2026-05-05 13:45 56.61486 6.71644 36015 ft 413 kts 220°
2026-05-05 13:45 56.56815 6.65538 36015 ft 414 kts 220°
2026-05-05 13:46 56.52132 6.59452 36015 ft 414 kts 220°
2026-05-05 13:46 56.47451 6.53366 36015 ft 414 kts 220°
2026-05-05 13:47 56.42767 6.47286 36016 ft 415 kts 220°
2026-05-05 13:47 56.38074 6.41227 36013 ft 415 kts 219°
2026-05-05 13:48 56.33369 6.35186 36016 ft 415 kts 219°
2026-05-05 13:48 56.28661 6.29142 36015 ft 416 kts 219°
2026-05-05 13:49 56.23949 6.23117 36015 ft 416 kts 219°
2026-05-05 13:49 56.19232 6.17092 36010 ft 416 kts 219°
2026-05-05 13:50 56.14506 6.11086 36007 ft 416 kts 219°
2026-05-05 13:50 56.09768 6.05093 36001 ft 416 kts 219°
2026-05-05 13:51 56.05031 5.99113 36000 ft 417 kts 219°
2026-05-05 13:51 56.00292 5.93130 35999 ft 417 kts 219°
2026-05-05 13:52 55.95567 5.87184 36004 ft 418 kts 219°
2026-05-05 13:52 55.90811 5.81227 36011 ft 418 kts 218°
2026-05-05 13:53 55.86034 5.75283 36014 ft 418 kts 218°
2026-05-05 13:53 55.81264 5.69340 36014 ft 419 kts 218°
2026-05-05 13:54 55.76484 5.63396 36013 ft 419 kts 218°
2026-05-05 13:54 55.71733 5.57530 36018 ft 419 kts 218°
2026-05-05 13:55 55.66950 5.51632 36015 ft 419 kts 218°
2026-05-05 13:55 55.62166 5.45744 36012 ft 419 kts 218°
2026-05-05 13:56 55.57377 5.39873 36007 ft 419 kts 218°
2026-05-05 13:56 55.52584 5.34018 36004 ft 419 kts 218°
2026-05-05 13:57 55.47783 5.28158 35999 ft 419 kts 218°
2026-05-05 13:57 55.42974 5.22317 36003 ft 420 kts 218°
2026-05-05 13:58 55.38160 5.16490 35999 ft 420 kts 218°
2026-05-05 13:58 55.33340 5.10668 35998 ft 420 kts 217°
2026-05-05 13:59 55.26124 5.01986 36001 ft 421 kts 217°
2026-05-05 14:00 55.19341 4.95144 35999 ft 424 kts 211°
2026-05-05 14:00 55.13271 4.89441 36001 ft 424 kts 211°
2026-05-05 14:01 55.08072 4.84559 35998 ft 424 kts 211°
2026-05-05 14:01 55.02874 4.79671 35997 ft 424 kts 211°
2026-05-05 14:02 54.97671 4.74805 35991 ft 425 kts 211°
2026-05-05 14:02 54.92459 4.69965 35990 ft 425 kts 211°
2026-05-05 14:03 54.87234 4.65116 35985 ft 425 kts 211°
2026-05-05 14:03 54.82006 4.60270 35989 ft 426 kts 211°
2026-05-05 14:04 54.76767 4.55439 35998 ft 427 kts 210°
2026-05-05 14:04 54.71519 4.50617 36002 ft 427 kts 210°
2026-05-05 14:05 54.66265 4.45784 36000 ft 428 kts 210°
2026-05-05 14:05 54.61001 4.40969 36003 ft 428 kts 210°
2026-05-05 14:06 54.55763 4.36191 36001 ft 429 kts 210°
2026-05-05 14:06 54.50490 4.31401 35998 ft 429 kts 210°
2026-05-05 14:07 54.45207 4.26599 36002 ft 430 kts 210°
2026-05-05 14:07 54.39919 4.21811 36000 ft 430 kts 210°
2026-05-05 14:08 54.34625 4.17034 35998 ft 430 kts 209°
2026-05-05 14:08 54.30178 4.13046 35991 ft 430 kts 209°
2026-05-05 14:09 54.24902 4.08320 35994 ft 431 kts 209°
2026-05-05 14:09 54.19582 4.03558 35999 ft 432 kts 209°
2026-05-05 14:10 54.14261 3.98802 36002 ft 432 kts 209°
2026-05-05 14:10 54.08931 3.94069 36008 ft 432 kts 209°
2026-05-05 14:11 54.03594 3.89347 36007 ft 432 kts 208°
2026-05-05 14:11 53.98254 3.84629 36009 ft 433 kts 208°
2026-05-05 14:12 53.92911 3.79911 36012 ft 433 kts 208°
2026-05-05 14:12 53.87566 3.75210 36018 ft 433 kts 208°
2026-05-05 14:13 53.82224 3.70524 36015 ft 432 kts 208°
2026-05-05 14:13 53.76875 3.65860 36015 ft 432 kts 208°
2026-05-05 14:14 53.71540 3.61214 36017 ft 431 kts 208°
2026-05-05 14:14 53.66208 3.56584 36017 ft 431 kts 208°
2026-05-05 14:15 53.60913 3.52015 36014 ft 430 kts 208°
2026-05-05 14:15 53.55595 3.47417 36016 ft 429 kts 208°
2026-05-05 14:16 53.50281 3.42834 36016 ft 429 kts 208°
2026-05-05 14:16 53.44976 3.38274 36016 ft 428 kts 208°
2026-05-05 14:17 53.39677 3.33739 36016 ft 427 kts 208°
2026-05-05 14:17 53.34386 3.29218 36015 ft 427 kts 208°
2026-05-05 14:18 53.29094 3.24707 36012 ft 426 kts 208°
2026-05-05 14:18 53.23801 3.20218 36006 ft 426 kts 208°
2026-05-05 14:19 53.18509 3.15750 35930 ft 426 kts 208°
2026-05-05 14:19 53.15873 3.13521 35575 ft 424 kts 208°
2026-05-05 14:19 53.13247 3.11300 35232 ft 423 kts 208°
2026-05-05 14:20 53.10624 3.09090 34884 ft 422 kts 208°
2026-05-05 14:20 53.08009 3.06890 34543 ft 421 kts 208°
2026-05-05 14:20 53.05401 3.04701 34211 ft 420 kts 208°
2026-05-05 14:20 53.02829 3.02541 33861 ft 419 kts 208°
2026-05-05 14:21 53.00229 3.00359 33472 ft 418 kts 208°
2026-05-05 14:21 52.97629 2.98183 33085 ft 419 kts 208°
2026-05-05 14:21 52.95030 2.96012 32703 ft 419 kts 208°
2026-05-05 14:21 52.92424 2.93835 32326 ft 418 kts 208°
2026-05-05 14:22 52.89829 2.91670 31956 ft 416 kts 208°
2026-05-05 14:22 52.87255 2.89523 31582 ft 413 kts 208°
2026-05-05 14:22 52.84691 2.87384 31222 ft 411 kts 208°
2026-05-05 14:22 52.82145 2.85270 30873 ft 408 kts 207°
2026-05-05 14:23 52.79613 2.83176 30515 ft 406 kts 207°
2026-05-05 14:23 52.77097 2.81099 30167 ft 403 kts 207°
2026-05-05 14:23 52.74594 2.79036 29789 ft 401 kts 207°
2026-05-05 14:23 52.72109 2.76986 29405 ft 399 kts 207°
2026-05-05 14:24 52.69630 2.74937 29066 ft 398 kts 207°
2026-05-05 14:24 52.67157 2.72897 28729 ft 397 kts 207°
2026-05-05 14:24 52.64691 2.70864 28393 ft 395 kts 207°
2026-05-05 14:24 52.62234 2.68839 28066 ft 394 kts 207°
2026-05-05 14:25 52.59786 2.66820 27741 ft 393 kts 207°
2026-05-05 14:25 52.57337 2.64809 27419 ft 392 kts 207°
2026-05-05 14:25 52.54898 2.62815 27087 ft 392 kts 207°
2026-05-05 14:25 52.52457 2.60825 26785 ft 391 kts 207°
2026-05-05 14:26 52.50021 2.58838 26473 ft 390 kts 207°
2026-05-05 14:26 52.47592 2.56857 26168 ft 390 kts 207°
2026-05-05 14:26 52.45197 2.54907 25870 ft 389 kts 206°
2026-05-05 14:26 52.42744 2.52912 25562 ft 388 kts 206°
2026-05-05 14:27 52.40356 2.50969 25269 ft 388 kts 206°
2026-05-05 14:27 52.37945 2.49009 24965 ft 387 kts 206°
2026-05-05 14:27 52.35529 2.47048 24681 ft 386 kts 206°
2026-05-05 14:27 52.33128 2.45107 24397 ft 385 kts 206°
2026-05-05 14:28 52.30726 2.43170 24107 ft 384 kts 206°
2026-05-05 14:28 52.28340 2.41248 23828 ft 382 kts 206°
2026-05-05 14:28 52.25955 2.39325 23594 ft 381 kts 206°
2026-05-05 14:28 52.23579 2.37409 23380 ft 381 kts 206°
2026-05-05 14:29 52.21203 2.35495 23157 ft 380 kts 206°
2026-05-05 14:29 52.18839 2.33595 22937 ft 379 kts 206°
2026-05-05 14:29 52.16478 2.31701 22723 ft 378 kts 205°
2026-05-05 14:29 52.14120 2.29816 22495 ft 377 kts 205°
2026-05-05 14:30 52.11821 2.27789 22279 ft 376 kts 212°
2026-05-05 14:30 52.09746 2.25199 22065 ft 376 kts 221°
2026-05-05 14:30 52.07946 2.22114 21853 ft 376 kts 227°
2026-05-05 14:30 52.06231 2.18909 21641 ft 376 kts 227°
2026-05-05 14:31 52.04515 2.15710 21434 ft 375 kts 227°
2026-05-05 14:31 52.02801 2.12532 21235 ft 374 kts 227°
2026-05-05 14:31 52.01080 2.09361 21026 ft 373 kts 227°
2026-05-05 14:31 51.99364 2.06209 20821 ft 373 kts 227°
2026-05-05 14:32 51.97650 2.03056 20617 ft 372 kts 227°
2026-05-05 14:32 51.95939 1.99904 20399 ft 371 kts 227°
2026-05-05 14:32 51.94237 1.96767 20215 ft 370 kts 227°
2026-05-05 14:32 51.92536 1.93633 20015 ft 370 kts 227°
2026-05-05 14:33 51.90837 1.90512 19827 ft 369 kts 227°
2026-05-05 14:33 51.89161 1.87439 19619 ft 368 kts 228°
2026-05-05 14:33 51.87446 1.84293 19425 ft 368 kts 228°
2026-05-05 14:33 51.85757 1.81198 19231 ft 367 kts 227°
2026-05-05 14:34 51.84090 1.78157 19043 ft 366 kts 227°
2026-05-05 14:34 51.82399 1.75082 18846 ft 365 kts 227°
2026-05-05 14:34 51.80708 1.72015 18657 ft 365 kts 228°
2026-05-05 14:34 51.79023 1.68956 18469 ft 365 kts 228°
2026-05-05 14:35 51.77355 1.65866 18275 ft 364 kts 231°
2026-05-05 14:35 51.75963 1.62458 18078 ft 364 kts 241°
2026-05-05 14:35 51.74963 1.58722 17861 ft 363 kts 251°
2026-05-05 14:35 51.74370 1.54758 17638 ft 363 kts 261°
2026-05-05 14:36 51.74096 1.50725 17422 ft 362 kts 264°
2026-05-05 14:36 51.73841 1.46695 17207 ft 361 kts 264°
2026-05-05 14:36 51.73583 1.42677 16995 ft 360 kts 264°
2026-05-05 14:36 51.73325 1.38667 16790 ft 359 kts 264°
2026-05-05 14:37 51.73065 1.34675 16580 ft 358 kts 264°
2026-05-05 14:37 51.72802 1.30692 16375 ft 357 kts 264°
2026-05-05 14:37 51.72539 1.26715 16169 ft 356 kts 264°
2026-05-05 14:37 51.72275 1.22755 15964 ft 355 kts 264°
2026-05-05 14:38 51.72009 1.18803 15764 ft 354 kts 264°
2026-05-05 14:38 51.71744 1.14862 15562 ft 353 kts 264°
2026-05-05 14:38 51.71479 1.10932 15360 ft 352 kts 264°
2026-05-05 14:38 51.71216 1.07014 15165 ft 351 kts 264°
2026-05-05 14:39 51.70950 1.03102 14967 ft 351 kts 263°
2026-05-05 14:39 51.70681 0.99199 14768 ft 349 kts 263°
2026-05-05 14:39 51.70411 0.95316 14579 ft 348 kts 263°
2026-05-05 14:39 51.70142 0.91443 14385 ft 347 kts 264°
2026-05-05 14:40 51.69876 0.87580 14147 ft 346 kts 264°
2026-05-05 14:40 51.69610 0.83727 13860 ft 345 kts 264°
2026-05-05 14:40 51.69343 0.79897 13555 ft 343 kts 263°
2026-05-05 14:40 51.69074 0.76083 13231 ft 341 kts 264°
2026-05-05 14:41 51.68807 0.72293 12913 ft 340 kts 264°
2026-05-05 14:41 51.68538 0.68519 12600 ft 338 kts 264°
2026-05-05 14:41 51.68269 0.64772 12291 ft 336 kts 264°
2026-05-05 14:41 51.68001 0.61044 11982 ft 334 kts 264°
2026-05-05 14:42 51.67732 0.57361 11675 ft 327 kts 264°
2026-05-05 14:42 51.67469 0.53759 11378 ft 321 kts 264°
2026-05-05 14:42 51.67210 0.50205 11072 ft 316 kts 264°
2026-05-05 14:42 51.66957 0.46716 10773 ft 311 kts 264°
2026-05-05 14:43 51.66704 0.43271 10481 ft 307 kts 264°
2026-05-05 14:43 51.66457 0.39923 10192 ft 303 kts 264°
2026-05-05 14:43 51.66204 0.36532 9898 ft 299 kts 264°
2026-05-05 14:43 51.65960 0.33265 9588 ft 296 kts 264°
2026-05-05 14:44 51.65715 0.29989 9270 ft 294 kts 264°
2026-05-05 14:44 51.65471 0.26739 8953 ft 291 kts 264°
2026-05-05 14:44 51.65226 0.23538 8764 ft 284 kts 264°
2026-05-05 14:44 51.64986 0.20426 8613 ft 276 kts 264°
2026-05-05 14:45 51.64757 0.17392 8455 ft 269 kts 264°
2026-05-05 14:45 51.64536 0.14434 8299 ft 263 kts 265°
2026-05-05 14:45 51.64358 0.11553 8145 ft 256 kts 266°
2026-05-05 14:45 51.64209 0.08728 7990 ft 251 kts 266°
2026-05-05 14:46 51.64069 0.05947 7840 ft 248 kts 266°
2026-05-05 14:46 51.63929 0.03181 7683 ft 247 kts 266°
2026-05-05 14:46 51.63786 0.00424 7535 ft 247 kts 266°
2026-05-05 14:46 51.63637 -0.02330 7380 ft 246 kts 266°
2026-05-05 14:47 51.63485 -0.05078 7227 ft 246 kts 266°
2026-05-05 14:47 51.63332 -0.07786 7146 ft 245 kts 266°
2026-05-05 14:47 51.63176 -0.10521 7024 ft 245 kts 266°
2026-05-05 14:47 51.63021 -0.13251 7023 ft 245 kts 266°
2026-05-05 14:48 51.62866 -0.15987 7027 ft 245 kts 266°
2026-05-05 14:48 51.62710 -0.18721 7027 ft 245 kts 266°
2026-05-05 14:48 51.62553 -0.21454 7030 ft 245 kts 266°
2026-05-05 14:48 51.62396 -0.24188 7031 ft 245 kts 266°
2026-05-05 14:49 51.62237 -0.26922 7029 ft 245 kts 266°
2026-05-05 14:49 51.62077 -0.29653 7031 ft 245 kts 266°
2026-05-05 14:49 51.61916 -0.32390 6900 ft 247 kts 266°
2026-05-05 14:49 51.61756 -0.35114 6724 ft 242 kts 265°
2026-05-05 14:50 51.61601 -0.37774 6552 ft 236 kts 266°
2026-05-05 14:50 51.61449 -0.40370 6386 ft 230 kts 266°
2026-05-05 14:50 51.61299 -0.42903 6196 ft 224 kts 266°
2026-05-05 14:50 51.61149 -0.45382 6013 ft 221 kts 266°
2026-05-05 14:51 51.61001 -0.47844 5837 ft 220 kts 266°
2026-05-05 14:51 51.60854 -0.50298 5652 ft 220 kts 266°
2026-05-05 14:51 51.60756 -0.51920 5521 ft 219 kts 266°
2026-05-05 14:51 51.60559 -0.55142 5284 ft 213 kts 266°
2026-05-05 14:52 51.60418 -0.57456 5114 ft 208 kts 266°
2026-05-05 14:52 51.60277 -0.59756 4934 ft 205 kts 266°
2026-05-05 14:52 51.60139 -0.62003 4790 ft 200 kts 266°
2026-05-05 14:52 51.60047 -0.63499 4711 ft 198 kts 266°
2026-05-05 14:53 51.59912 -0.65705 4576 ft 197 kts 266°
2026-05-05 14:53 51.59777 -0.67868 4435 ft 197 kts 267°
2026-05-05 14:53 51.59638 -0.70057 4323 ft 196 kts 266°
2026-05-05 14:53 51.59502 -0.72240 4189 ft 196 kts 266°
2026-05-05 14:54 51.59366 -0.74422 4057 ft 196 kts 266°
2026-05-05 14:54 51.59133 -0.76573 3946 ft 196 kts 250°
2026-05-05 14:54 51.58375 -0.78387 3818 ft 199 kts 221°
2026-05-05 14:54 51.57171 -0.79458 3709 ft 199 kts 194°
2026-05-05 14:55 51.55800 -0.79602 3622 ft 199 kts 176°
2026-05-05 14:55 51.54413 -0.79521 3572 ft 199 kts 177°
2026-05-05 14:55 51.53028 -0.79445 3528 ft 199 kts 177°
2026-05-05 14:55 51.51646 -0.79371 3477 ft 199 kts 176°
2026-05-05 14:56 51.50261 -0.79296 3427 ft 200 kts 176°
2026-05-05 14:56 51.48885 -0.79114 3365 ft 197 kts 160°
2026-05-05 14:56 51.47848 -0.77843 3316 ft 188 kts 114°
2026-05-05 14:56 51.47631 -0.75886 3272 ft 176 kts 81°
2026-05-05 14:57 51.47667 -0.73952 3199 ft 171 kts 88°
2026-05-05 14:57 51.47648 -0.72069 3029 ft 168 kts 87°
2026-05-05 14:57 51.47647 -0.70195 2822 ft 167 kts 87°
2026-05-05 14:57 51.47653 -0.68335 2581 ft 164 kts 86°
2026-05-05 14:58 51.47661 -0.66529 2362 ft 159 kts 85°
2026-05-05 14:58 51.47670 -0.64792 2149 ft 153 kts 86°
2026-05-05 14:58 51.47679 -0.63121 1946 ft 144 kts 86°
2026-05-05 14:58 51.47687 -0.61548 1760 ft 138 kts 86°
2026-05-05 14:59 51.47694 -0.60010 1579 ft 137 kts 87°
2026-05-05 14:59 51.47703 -0.58486 1393 ft 136 kts 85°
2026-05-05 14:59 51.47710 -0.56969 1215 ft 136 kts 85°
2026-05-05 14:59 51.47717 -0.55463 1020 ft 136 kts 86°
2026-05-05 15:00 51.47724 -0.53952 816 ft 136 kts 87°
2026-05-05 15:00 51.47729 -0.52939 683 ft 136 kts 86°
2026-05-05 15:00 51.47738 -0.50898 419 ft 138 kts 86°
2026-05-05 15:00 51.47747 -0.49353 242 ft 141 kts 87°
2026-05-05 15:01 51.47740 -0.47790 92 ft 133 kts 90°
2026-05-05 15:01 51.47756 -0.46547 93 ft 81 kts 88°
2026-05-05 15:01 51.47736 -0.46167 89 ft 9 kts 155°
2026-05-05 15:01 51.47677 -0.46117 88 ft 6 kts 146°
2026-05-05 15:02 51.47646 -0.46083 88 ft 4 kts 146°
2026-05-05 15:02 51.47612 -0.46055 88 ft 6 kts 167°
2026-05-05 15:02 51.47590 -0.46103 88 ft 7 kts 273°
2026-05-05 15:02 51.47593 -0.46224 87 ft 14 kts 271°
2026-05-05 15:03 51.47593 -0.46417 87 ft 19 kts 271°
2026-05-05 15:03 51.47593 -0.46569 87 ft 10 kts 269°
2026-05-05 15:03 51.47590 -0.46693 87 ft 13 kts 269°
2026-05-05 15:03 51.47586 -0.46853 87 ft 16 kts 263°
2026-05-05 15:04 51.47583 -0.47050 88 ft 19 kts 270°
2026-05-05 15:04 51.47582 -0.47241 91 ft 18 kts 270°
2026-05-05 15:04 51.47581 -0.47434 90 ft 15 kts 269°
2026-05-05 15:04 51.47580 -0.47625 88 ft 19 kts 270°
2026-05-05 15:05 51.47579 -0.48030 89 ft 18 kts 269°
2026-05-05 15:05 51.47578 -0.48231 88 ft 18 kts 269°
2026-05-05 15:05 51.47575 -0.48435 88 ft 16 kts 255°
2026-05-05 15:06 51.47471 -0.48477 87 ft 18 kts 179°
2026-05-05 15:06 51.47376 -0.48478 87 ft 7 kts 181°
2026-05-05 15:06 51.47360 -0.48537 87 ft 7 kts 265°
2026-05-05 15:06 51.47360 -0.48586 87 ft 2 kts 269°
2026-05-05 15:07 51.47360 -0.48591 87 ft 0 kts 269°